Theta_e
328 331 333 335 338 342 343 345 336 332 335 337 338 336 334 333 330 333 334 332 332 332 335 334 331 331 329 328 325 327 324 323
327 330 332 334 337 341 344 345 346 336 335 337 339 334 332 332 334 333 333 333 333 334 332 330 331 329 319 319 325 322 322 321
327 327 333 335 337 340 343 345 346 343 336 339 337 334 335 334 332 333 333 334 334 333 329 326 323 311 310 311 317 320 321 321
326 326 327 332 336 339 342 344 345 343 343 342 338 336 336 335 334 335 335 335 333 330 314 310 312 314 311 310 309 320 319 319
327 326 327 330 332 334 335 338 343 343 342 340 340 338 337 337 338 336 336 335 329 314 311 310 309 310 310 315 317 315 317 318
328 330 331 332 334 338 338 337 339 342 341 340 341 339 339 339 337 336 335 329 323 312 310 308 306 305 306 307 309 315 316 312
330 331 333 333 336 332 328 339 341 339 339 339 339 338 339 338 336 331 325 321 313 310 308 307 306 306 306 308 309 309 312 313
330 330 332 333 335 332 334 336 335 334 337 338 339 339 339 336 329 322 318 318 317 311 308 306 306 307 307 307 307 306 308 312
329 330 332 334 335 328 330 335 337 337 338 339 339 338 337 330 321 317 317 317 316 316 312 307 307 308 308 308 307 306 309 313
328 330 333 334 335 330 327 332 339 339 338 339 338 338 329 321 318 317 317 314 314 312 308 308 308 308 308 308 308 308 311 312
327 328 330 333 335 335 327 333 337 338 339 337 335 327 322 319 318 314 312 312 308 308 308 308 309 309 310 311 311 311 312 312
326 328 329 331 332 334 337 336 337 339 338 332 325 321 320 318 315 313 311 308 308 308 309 309 311 312 313 313 313 312 312 312
325 326 327 329 331 332 333 335 335 333 328 324 321 320 319 314 311 309 308 308 308 309 309 308 306 306 307 308 309 310 310 310
324 325 325 325 327 329 329 331 331 327 323 321 321 320 317 314 312 309 308 308 308 308 305 303 302 304 305 306 306 307 308 309
325 326 325 324 325 325 326 326 326 324 321 320 318 315 314 313 311 308 308 306 307 304 303 301 301 304 305 305 306 307 305 304
326 325 325 324 324 324 325 324 322 320 320 318 315 314 314 311 308 308 306 306 305 306 301 300 304 304 305 305 306 304 306 306
326 326 325 323 322 322 323 324 322 319 317 314 315 315 311 308 307 303 306 305 305 301 300 304 305 305 305 305 305 303 304 305
326 325 324 323 322 321 321 322 322 317 315 314 313 310 308 305 303 305 305 304 301 300 304 305 303 303 303 304 304 303 303 303
325 324 323 322 321 320 319 319 317 315 314 312 309 306 303 305 306 305 304 302 303 304 301 302 302 302 302 304 303 302 304 304
Wind_Speed
17 18 23 23 23 24 24 23 24 29 28 26 24 24 23 24 23 22 18 17 16 14 9 10 9 8 10 12 21 17 21 21
16 15 21 24 24 25 26 26 24 28 33 32 30 27 25 24 23 21 19 17 16 11 9 9 7 11 13 17 17 22 25 26
19 15 16 21 24 25 26 26 25 30 31 33 33 29 26 25 24 23 21 18 17 11 12 12 14 16 18 20 19 19 19 17
10 14 17 17 18 21 24 25 25 32 31 32 26 26 26 26 26 23 22 17 16 16 16 14 11 15 15 18 18 16 18 19
7 8 12 15 15 16 19 24 26 35 34 32 33 32 27 28 21 22 19 19 18 18 15 13 14 14 16 16 14 19 17 20
5 6 8 10 13 16 18 21 26 35 33 34 36 28 26 23 23 19 19 18 17 16 15 14 16 16 17 18 20 19 22 23
4 6 7 9 11 15 16 20 24 33 35 37 33 31 27 22 23 20 20 17 18 17 16 16 16 17 18 20 21 23 24 26
3 6 7 8 9 12 13 16 21 25 27 33 31 31 27 27 21 21 20 17 15 16 16 15 17 19 20 20 23 26 28 29
5 6 7 8 10 11 12 14 17 17 24 30 31 28 27 20 22 20 19 15 12 11 14 16 19 21 22 25 27 28 27 27
6 6 7 9 9 12 14 15 19 22 25 29 27 27 20 23 23 21 17 17 14 15 16 19 23 24 27 27 30 29 27 28
10 10 10 10 12 13 15 16 18 20 24 24 22 21 23 22 20 21 18 17 16 17 17 22 25 25 26 26 28 27 26 29
13 14 13 14 15 17 18 18 20 21 24 25 27 27 25 24 23 20 19 19 19 18 20 22 22 21 22 24 26 29 29 31
13 12 14 17 20 21 22 23 25 26 26 26 28 27 28 26 24 23 21 21 18 19 21 22 24 25 23 25 29 30 33 34
15 20 21 22 23 23 24 26 27 27 27 26 26 28 26 24 22 22 21 18 16 19 20 26 27 26 25 26 28 30 31 31
29 22 25 22 24 25 25 27 28 28 27 27 27 28 25 22 22 22 20 16 17 18 24 27 27 25 25 26 26 26 28 31
30 30 29 27 25 25 25 27 28 29 29 28 28 29 24 23 24 22 19 17 20 28 27 26 22 25 26 27 30 28 27 29
34 30 27 24 24 23 24 25 28 32 29 30 29 24 28 26 23 19 18 20 24 25 24 21 21 22 24 30 24 25 24 25
25 24 24 24 23 22 23 24 25 27 25 26 26 28 27 24 19 16 13 13 19 20 17 17 22 23 21 23 21 24 23 23
23 19 22 23 22 20 19 20 24 24 24 24 23 24 20 15 12 10 12 13 12 13 20 20 20 21 18 18 24 25 21 20
Wind_Direction
225 229 222 220 217 213 211 217 219 215 215 213 215 218 216 215 215 205 209 220 224 233 241 247 260 278 272 277 294 285 292 291
234 222 221 220 218 213 214 211 212 221 215 211 213 214 210 208 202 208 214 223 236 230 227 242 263 251 267 265 279 280 287 291
227 225 224 220 221 219 217 215 213 231 221 214 218 215 207 204 207 213 216 227 228 222 224 225 247 286 293 293 288 287 279 278
235 228 228 227 225 222 222 222 220 228 231 213 213 205 208 201 209 216 221 219 223 221 234 261 271 285 287 287 289 283 285 276
202 208 218 225 227 228 226 221 219 229 232 224 210 205 201 206 205 210 207 209 208 223 238 260 268 266 269 282 292 290 286 282
197 214 213 216 214 218 212 214 215 225 228 218 209 204 207 206 211 203 195 208 208 230 252 260 264 271 280 287 289 283 285 291
204 205 208 210 208 230 213 203 209 221 225 212 212 211 208 203 192 190 193 205 221 238 247 255 261 273 281 283 285 286 281 278
208 227 229 206 211 223 217 210 216 223 218 207 211 211 208 201 199 194 196 202 218 234 244 259 269 277 282 282 281 283 282 276
228 233 214 212 212 230 227 218 223 216 206 210 215 214 207 205 195 199 202 206 218 225 253 265 274 278 283 283 282 281 276 275
228 222 217 219 218 233 234 226 215 209 208 207 214 205 202 195 202 199 203 214 215 235 253 271 279 282 284 285 285 285 279 275
221 221 217 224 231 232 236 225 217 221 218 207 206 203 199 200 204 215 218 223 241 252 267 276 277 280 285 287 284 285 278 272
237 227 220 226 229 228 225 223 215 213 208 205 201 200 202 204 214 219 226 238 247 255 276 276 280 281 281 284 280 279 274 270
244 246 253 249 240 228 226 223 216 215 210 207 204 204 212 214 219 226 234 242 244 275 285 284 281 286 284 279 277 276 274 274
243 263 270 266 250 241 235 227 223 214 212 210 211 210 214 216 218 224 231 231 265 288 288 286 288 289 286 280 276 277 276 273
267 275 276 262 256 258 248 239 227 219 216 214 213 218 214 213 217 224 226 247 280 284 282 286 290 287 284 281 279 278 278 278
271 268 275 270 265 258 248 238 228 221 217 217 215 218 209 210 221 221 237 273 278 285 285 289 287 284 285 280 271 283 280 281
268 273 268 264 262 258 250 240 229 221 219 217 210 197 210 215 215 224 254 266 279 280 290 290 294 292 281 275 286 288 282 271
271 264 262 261 259 257 246 237 225 222 217 212 203 207 205 211 219 237 250 263 279 291 293 290 291 298 299 282 286 287 285 276
270 263 264 263 262 250 238 223 214 213 207 203 199 202 201 205 216 232 254 279 290 282 283 289 291 289 290 286 291 289 282 278